Nebraska City, NE

2:24 AM CST on February 26, 2017 (GMT -0600)
Nebraska City Municipal

Weather History for KAFK - May, 2013

Change the Weather History Date:

Thursday, May 30, 2013

  Actual Average (KSDA) Record (KSDA)
Temperature  
Mean Temperature 66 °F -  
Max Temperature 73 °F 78 °F 100 °F (2000)
Min Temperature 58 °F 55 °F 40 °F (1984)
Cooling Degree Days 1    
Growing Degree Days 16 (Base 50)    
Moisture  
Dew Point 61 °F    
Average Humidity 87    
Maximum Humidity 100    
Minimum Humidity 65    
Precipitation  
Precipitation 0.84 in - - ()
Sea Level Pressure  
Sea Level Pressure 29.61 in    
Wind  
Wind Speed 10 mph (SSW)    
Max Wind Speed 28 mph    
Max Gust Speed 40 mph    
Visibility 10 miles    
Events Rain , Thunderstorm    
Averages and records for this station are not official NWS values.
T = Trace of Precipitation, MM = Missing Value Source: NWS Daily Summary

Daily Weather History Graph

Daily Weather History Graph

Search for Another Location

Airport or City:

Trip Planner

Search our weather history database for the weather conditions in past years. The results will help you decide how hot, cold, wet, or windy it might be!

Date:

Astronomy

May. 30, 2013 Rise Set
Actual Time 5:55 AM CDT 8:46 PM CDT
Civil Twilight 5:23 AM CDT 9:19 PM CDT
Nautical Twilight 4:42 AM CDT 10:00 PM CDT
Astronomical Twilight 3:55 AM CDT 10:47 PM CDT
Moon 12:47 AM CDT (5/30) 12:06 PM CDT (5/30)
Length of Visible Light 15h 56m
Length of Day
14h 51m
Waning Gibbous, 62% of the Moon is Illuminated
May 30
Waning Gibbous
May 31
Last Quarter
Jun 8
New
Jun 16
First Quarter
Jun 23
Full

Hourly Weather History & Observations

Time (CDT) Temp. Dew Point Humidity Pressure Visibility Wind Dir Wind Speed Gust Speed Precip Events Conditions
12:15 AM 62.8 °F 62.8 °F 100% 29.61 in 10.0 mi Calm Calm - N/A Rain Light Rain
12:35 AM 62.8 °F 62.8 °F 100% 29.60 in 7.0 mi Calm Calm - 0.02 in Rain Rain
12:55 AM 63.1 °F 63.1 °F 100% 29.63 in 10.0 mi SW 11.5 mph 18.4 mph 0.05 in Rain Light Rain
1:15 AM 62.8 °F 62.8 °F 100% 29.63 in 1.0 mi SSW 17.3 mph 26.5 mph 0.63 in Rain , Thunderstorm Heavy Thunderstorms and Rain
1:35 AM 64.0 °F 64.0 °F 100% 29.61 in 7.0 mi SSW 10.4 mph - 0.71 in Rain , Thunderstorm Rain
1:55 AM 62.8 °F 62.8 °F 100% 29.60 in 10.0 mi SSE 5.8 mph - 0.73 in Rain Light Rain
2:15 AM 63.5 °F 63.5 °F 100% 29.57 in 10.0 mi SSE 11.5 mph - N/A   Overcast
2:35 AM 62.6 °F 62.6 °F 100% 29.56 in 10.0 mi SSE 8.1 mph - N/A   Mostly Cloudy
2:55 AM 62.6 °F 62.6 °F 100% 29.56 in 10.0 mi SSE 10.4 mph - N/A   Scattered Clouds
3:15 AM 62.6 °F 62.6 °F 100% 29.57 in 10.0 mi SSE 9.2 mph - N/A   Clear
3:35 AM 63.0 °F 63.0 °F 100% 29.57 in 10.0 mi South 12.7 mph - N/A   Mostly Cloudy
3:55 AM 63.0 °F 63.0 °F 100% 29.57 in 10.0 mi South 23.0 mph 29.9 mph N/A   Mostly Cloudy
4:15 AM 62.2 °F 62.2 °F 100% 29.57 in 10.0 mi South 18.4 mph 26.5 mph N/A   Scattered Clouds
4:35 AM 62.1 °F 62.1 °F 100% 29.58 in 10.0 mi South 16.1 mph 20.7 mph N/A   Clear
4:55 AM 62.6 °F 62.6 °F 100% 29.59 in 10.0 mi South 13.8 mph 17.3 mph N/A   Scattered Clouds
5:15 AM 62.6 °F 62.6 °F 100% 29.61 in 10.0 mi West 13.8 mph - N/A   Scattered Clouds
5:35 AM 62.1 °F 61.9 °F 99% 29.60 in 10.0 mi WSW 5.8 mph - N/A   Mostly Cloudy
5:55 AM 62.1 °F 61.7 °F 99% 29.60 in 10.0 mi SSW 5.8 mph - N/A   Overcast
6:15 AM 62.2 °F 62.2 °F 100% 29.61 in 10.0 mi SSW 4.6 mph - N/A   Overcast
6:35 AM 62.6 °F 62.6 °F 100% 29.61 in 10.0 mi South 9.2 mph - N/A   Mostly Cloudy
6:55 AM 62.6 °F 62.6 °F 100% 29.63 in 10.0 mi SSW 12.7 mph 16.1 mph N/A Rain Light Rain
7:15 AM 62.6 °F 62.6 °F 100% 29.63 in 10.0 mi SSW 10.4 mph - N/A   Light Drizzle
7:35 AM 62.6 °F 62.6 °F 100% 29.63 in 10.0 mi SSW 13.8 mph - N/A   Drizzle
7:55 AM 62.6 °F 62.6 °F 100% 29.63 in 10.0 mi SSW 12.7 mph - 0.01 in   Drizzle
8:15 AM 62.6 °F 62.6 °F 100% 29.62 in 7.0 mi South 10.4 mph - 0.01 in Rain Rain
8:35 AM 62.6 °F 62.6 °F 100% 29.60 in 10.0 mi SSE 9.2 mph - 0.01 in   Light Drizzle
8:55 AM 62.6 °F 62.6 °F 100% 29.61 in 10.0 mi SSE 9.2 mph - 0.01 in Rain Light Rain
9:15 AM 62.8 °F 62.8 °F 100% 29.64 in 10.0 mi SSW 8.1 mph - N/A   Drizzle
9:35 AM 62.8 °F 62.8 °F 100% 29.63 in 7.0 mi South 8.1 mph - N/A Rain Light Rain
9:55 AM 62.8 °F 62.8 °F 100% 29.62 in 10.0 mi South 9.2 mph - N/A   Light Drizzle
10:15 AM 63.1 °F 63.1 °F 100% 29.61 in 10.0 mi South 12.7 mph 17.3 mph N/A   Overcast
10:35 AM 63.0 °F 63.0 °F 100% 29.59 in 10.0 mi SSE 6.9 mph - N/A   Overcast
10:55 AM 63.5 °F 63.1 °F 99% 29.60 in 10.0 mi Calm Calm - N/A   Overcast
11:15 AM 65.3 °F 64.4 °F 97% 29.63 in 10.0 mi SSW 9.2 mph - N/A   Overcast
11:35 AM 64.6 °F 63.7 °F 97% 29.62 in 10.0 mi South 4.6 mph - N/A   Overcast
11:55 AM 66.4 °F 64.6 °F 94% 29.63 in 10.0 mi SSW 8.1 mph - N/A   Mostly Cloudy
12:15 PM 67.6 °F 64.8 °F 90% 29.62 in 10.0 mi South 8.1 mph - N/A   Overcast
12:35 PM 66.9 °F 62.6 °F 86% 29.61 in 10.0 mi South 9.2 mph - N/A   Overcast
12:55 PM 68.4 °F 63.0 °F 83% 29.60 in 10.0 mi South 10.4 mph - N/A   Scattered Clouds
1:15 PM 69.8 °F 61.2 °F 74% 29.60 in 10.0 mi SW 9.2 mph 16.1 mph N/A   Clear
1:35 PM 70.2 °F 60.6 °F 72% 29.60 in 10.0 mi SW 13.8 mph - N/A   Clear
1:55 PM 71.8 °F 62.4 °F 72% 29.59 in 10.0 mi SSW 12.7 mph - N/A   Clear
2:15 PM 69.4 °F 60.6 °F 73% 29.58 in 10.0 mi SSW 10.4 mph - N/A   Clear
2:35 PM 70.2 °F 61.0 °F 73% 29.59 in 10.0 mi SW 12.7 mph - N/A   Clear
2:55 PM 71.6 °F 61.5 °F 70% 29.57 in 10.0 mi SSW 12.7 mph 17.3 mph N/A   Scattered Clouds
3:15 PM 70.9 °F 60.6 °F 70% 29.59 in 10.0 mi SSW 13.8 mph 18.4 mph N/A   Scattered Clouds
3:35 PM 70.7 °F 59.7 °F 68% 29.60 in 10.0 mi SSW 13.8 mph 19.6 mph N/A   Scattered Clouds
3:55 PM 70.2 °F 59.7 °F 69% 29.60 in 10.0 mi SSW 12.7 mph - N/A   Clear
4:15 PM 71.4 °F 61.0 °F 70% 29.60 in 10.0 mi SSW 17.3 mph 21.9 mph N/A   Clear
4:35 PM 71.6 °F 61.0 °F 69% 29.59 in 10.0 mi SSW 15.0 mph 19.6 mph N/A   Clear
4:55 PM 72.7 °F 61.5 °F 68% 29.59 in 10.0 mi SSW 18.4 mph 21.9 mph N/A   Clear
5:15 PM 73.4 °F 61.2 °F 65% 29.58 in 10.0 mi SSW 18.4 mph - N/A   Scattered Clouds
5:35 PM 73.4 °F 61.5 °F 66% 29.57 in 10.0 mi South 12.7 mph 18.4 mph N/A   Clear
5:55 PM 73.4 °F 61.0 °F 65% 29.58 in 10.0 mi SSW 18.4 mph 23.0 mph N/A   Clear
6:15 PM 73.4 °F 61.2 °F 65% 29.59 in 10.0 mi SSW 12.7 mph 21.9 mph N/A   Clear
6:35 PM 73.4 °F 61.0 °F 65% 29.58 in 10.0 mi South 16.1 mph - N/A   Scattered Clouds
6:55 PM 72.9 °F 61.3 °F 67% 29.58 in 10.0 mi SSW 13.8 mph 20.7 mph N/A   Clear
7:15 PM 72.5 °F 61.3 °F 68% 29.60 in 10.0 mi SSW 11.5 mph 21.9 mph N/A   Clear
7:35 PM 71.6 °F 61.3 °F 70% 29.60 in 10.0 mi SSW 15.0 mph 20.7 mph N/A   Clear
7:55 PM 70.2 °F 61.0 °F 73% 29.61 in 10.0 mi SSW 15.0 mph 20.7 mph N/A Thunderstorm Clear
8:15 PM 70.0 °F 61.2 °F 73% 29.64 in 10.0 mi SW 27.6 mph 40.3 mph N/A Thunderstorm Scattered Clouds
8:35 PM 61.9 °F 55.2 °F 79% 29.64 in 10.0 mi SW 9.2 mph - 0.04 in Rain , Thunderstorm Light Thunderstorms and Rain
8:55 PM 62.8 °F 54.7 °F 75% 29.62 in 10.0 mi WSW 5.8 mph - 0.04 in Rain , Thunderstorm Light Thunderstorms and Rain
9:15 PM 61.9 °F 55.4 °F 79% 29.64 in 10.0 mi SW 6.9 mph - N/A   Mostly Cloudy
9:35 PM 61.0 °F 56.3 °F 85% 29.65 in 10.0 mi South 8.1 mph - N/A   Scattered Clouds
9:55 PM 60.8 °F 56.3 °F 85% 29.65 in 10.0 mi South 4.6 mph - N/A   Clear
10:15 PM 59.9 °F 55.4 °F 85% 29.65 in 10.0 mi South 6.9 mph - N/A   Clear
10:35 PM 59.5 °F 54.9 °F 84% 29.66 in 10.0 mi South 8.1 mph - N/A   Clear
10:55 PM 60.6 °F 54.3 °F 80% 29.67 in 10.0 mi SSW 11.5 mph - N/A   Clear
11:15 PM 59.7 °F 54.1 °F 82% 29.65 in 10.0 mi South 9.2 mph - N/A   Clear
11:35 PM 59.0 °F 54.0 °F 83% 29.65 in 10.0 mi South 9.2 mph - N/A   Clear
11:55 PM 58.5 °F 54.0 °F 85% 29.66 in 10.0 mi SSW 9.2 mph - N/A   Clear